Flag for U.S.A. Weather past 2 weeks in Metairie, Louisiana, U.S.A.

Now
82 °F

Partly sunny.


Feels Like: 87 °F
Forecast: 75 / 87 °F
Wind: 10 mph from Southeast

Location: New Orleans International Airport

Current Time: Jul 23, 2014 at 2:56:52 PM

Latest Report: Jul 23, 2014 at 1:53 PM


Visibility: 10 mi

Pressure: 30.06 "Hg

Humidity: 74%

Dew point: 73 °F

Location of MetairieLocation

Historic Weather in Metairie — Graph

°F

Metairie temperature yesterday

Maximum temperature yesterday: 88 °F (at 10:53 AM)
Minimum temperature yesterday: 77 °F (at 3:53 AM)
Average temperature yesterday: 81 °F

Past Weeks' High & Low Weather Summary

 TemperatureHumidityPressure
High92 °F (Jul 11, 1:53 PM)97% (Jul 21, 3:53 AM)30.17 "Hg (Jul 21, 3:53 AM)
Low73 °F (Jul 17, 5:53 AM)46% (Jul 16, 5:53 PM)29.92 "Hg (Jul 15, 5:53 PM)
Average80 °F78%30.03 "Hg
* Reported Jul 8 12:53 PM — Jul 23 12:53 PM, Metairie, Weather by CustomWeather, © 2014

Note: Actual official high and low records may vary slightly from our data, if they occured in-between our weather recording intervals... More about our weather records

Advertising

Metairie weather history for previous 24 hours

 ConditionsComfort  
Time TempWeatherWind HumidityBarometerVisibility
12:53 PM
Jul 23
81 °FPartly sunny.7 mph77%30.08 "Hg7 mi
11:53 AM77 °FLight rain. Partly sunny.No wind85%30.07 "Hg7 mi
10:53 AM75 °FThunderstorms. Fog.3 mph90%30.08 "Hg6 mi
9:53 AM76 °FThunderstorms. Broken clouds.7 mph82%30.06 "Hg6 mi
8:58 AM80 °FThunderstorms. Partly sunny.10 mph79%30.05 "Hg8 mi
8:53 AM81 °FThunderstorms. Broken clouds.5 mph77%30.06 "Hg9 mi
7:53 AM79 °FThunderstorms. Broken clouds.No wind84%30.06 "Hg8 mi
4:53 AM77 °FPassing clouds.3 mph88%30.02 "Hg10 mi
3:53 AM78 °FPassing clouds.7 mph84%30.00 "Hg10 mi
2:53 AM78 °FMostly cloudy.5 mph82%30.01 "Hg10 mi
12:53 AM79 °FPassing clouds.6 mph74%30.02 "Hg10 mi
11:53 PM
Jul 22
78 °FPassing clouds.5 mph76%30.04 "Hg10 mi
10:53 PM79 °FPassing clouds.6 mph77%30.03 "Hg10 mi
9:53 PM80 °FPartly cloudy.5 mph79%30.03 "Hg9 mi
8:53 PM80 °FPartly sunny.3 mph81%30.01 "Hg10 mi
7:53 PM80 °FPartly sunny.3 mph76%30.00 "Hg9 mi
6:53 PM81 °FPartly sunny.3 mph74%30.01 "Hg9 mi
Weather by CustomWeather, © 2014

See weather overviewHow to use our weather pages